Location: Albuquerque Trailhead
(34.7934°N, 106.3736°W)
Time: 02:15:29
(UTC+00:00)

X-37B - Pass Details

Date: 20 June 2021
Orbit: 383 x 392 km, 45.0° (Epoch: 01 July)

Event Time Altitude Azimuth Distance (km) Brightness Sun altitude
Rises 11:18:30 0° 301° (WNW) 2,260 4.2 -6.7°
Reaches altitude 10° 11:20:34 10° 300° (WNW) 1,406 3.2 -6.4°
Maximum altitude 11:23:43 81° 214° (SW) 393 0.5 -5.8°
Drops below altitude 10° 11:26:53 10° 126° (SE) 1,404 3.7 -5.3°
Sets 11:28:57 0° 125° (SE) 2,257 4.8 -4.9°
